Glens Falls, NY
on Wednesday, December 6, 2017

Wednesday
       
Previous Day Next Day
Daily Summary
 ActualAverageRecord
Temperature
Mean Temperature °F °C 29°F -2°C  
Max Temperature 52°F 11°C 38°F 3°C 63°F 17°C (2001)
Min Temperature 30°F -1°C 20°F -7°C -4°F -20°C (2007)
Degree Days
Heating Degree Days 24 36  
Month to date heating degree days 172 210  
Since 1 July heating degree days 1583 1908  
Cooling Degree Days 0 0  
Month to date cooling degree days 0 0  
Year to date cooling degree days 388 352  
Moisture
Dew Point 24°F -4°C   
Average Humidity 70    
Maximum Humidity 100    
Minimum Humidity 40    
Precipitation
Precipitation 0.06 in / 1.52 cm 0.11 in / 2.79 cm 2.10 in / 5.33 cm (1953)
Month to date precipitation 0.61 0.67  
Year to date precipitation 34.13 36.68  
Wind
Wind Speed 9 mph / 14 km/h   
Max Wind Speed 20 mph / 32 km/h   
Max Gust Speed 31 mph / 50 km/h   
Visibility 10 miles / 16 kilometers   
Events Rain   

Key: T is trace of precipitation, MM is missing value
Source: NWS Daily Summary
Time(EST)TemperatureDew PointHumidity Pressure Visibility Wind DirectionWind SpeedGust SpeedPrecipitationEvents Conditions
12:42 AM 48.9°F 9.4°C 44.1°F 6.7°C 83% 29.71 in / 1006.0 hPa 4.0 miles / 6.4 kilometers West 15.0 mph / 24.1 km/h 31.1 mph / 50.0 km/h 0.06 in / 1.5 cm Rain Light Rain
12:53 AM 48.0°F 8.9°C 42.1°F 5.6°C 80% 29.74 in / 1006.9 hPa 10.0 miles / 16.1 kilometers WSW 16.1 mph / 25.9 km/h 24.2 mph / 38.9 km/h 0.06 in / 1.5 cm Rain Light Rain
1:53 AM 45.0°F 7.2°C 37.9°F 3.3°C 76% 29.76 in / 1007.6 hPa 10.0 miles / 16.1 kilometers West 9.2 mph / 14.8 km/h - 0.00 in / 0.0 cm   Overcast
2:53 AM 44.1°F 6.7°C 36.0°F 2.2°C 73% 29.80 in / 1009.0 hPa 10.0 miles / 16.1 kilometers WSW 6.9 mph / 11.1 km/h - 0.00 in / 0.0 cm   Overcast
3:53 AM 42.1°F 5.6°C 32.0°F 0.0°C 67% 29.84 in / 1010.5 hPa 10.0 miles / 16.1 kilometers Variable 6.9 mph / 11.1 km/h - N/A   Overcast
4:53 AM 37.9°F 3.3°C 26.1°F -3.3°C 62% 29.88 in / 1011.6 hPa 10.0 miles / 16.1 kilometers West 8.1 mph / 13.0 km/h - N/A   Clear
5:53 AM 37.0°F 2.8°C 24.1°F -4.4°C 59% 29.90 in / 1012.3 hPa 10.0 miles / 16.1 kilometers WSW 6.9 mph / 11.1 km/h - N/A   Clear
6:53 AM 36.0°F 2.2°C 23.0°F -5.0°C 59% 29.91 in / 1012.6 hPa 10.0 miles / 16.1 kilometers SW 10.4 mph / 16.7 km/h - N/A   Scattered Clouds
7:53 AM 36.0°F 2.2°C 24.1°F -4.4°C 62% 29.92 in / 1013.1 hPa 10.0 miles / 16.1 kilometers SSW 8.1 mph / 13.0 km/h - N/A   Overcast
8:53 AM 36.0°F 2.2°C 21.9°F -5.6°C 57% 29.92 in / 1013.2 hPa 10.0 miles / 16.1 kilometers SW 5.8 mph / 9.3 km/h - N/A   Partly Cloudy
9:53 AM 37.0°F 2.8°C 21.9°F -5.6°C 54% 29.93 in / 1013.4 hPa 10.0 miles / 16.1 kilometers South 8.1 mph / 13.0 km/h - N/A   Clear
10:53 AM 37.9°F 3.3°C 21.0°F -6.1°C 51% 29.91 in / 1012.7 hPa 10.0 miles / 16.1 kilometers WSW 9.2 mph / 14.8 km/h - N/A   Scattered Clouds
11:53 AM 39.9°F 4.4°C 19.9°F -6.7°C 45% 29.89 in / 1012.0 hPa 10.0 miles / 16.1 kilometers WSW 11.5 mph / 18.5 km/h - N/A   Scattered Clouds
12:53 PM 41.0°F 5.0°C 19.9°F -6.7°C 43% 29.87 in / 1011.5 hPa 10.0 miles / 16.1 kilometers SW 11.5 mph / 18.5 km/h - N/A   Clear
1:53 PM 39.9°F 4.4°C 18.0°F -7.8°C 41% 29.86 in / 1011.1 hPa 10.0 miles / 16.1 kilometers SSW 13.8 mph / 22.2 km/h 19.6 mph / 31.5 km/h N/A   Clear
2:53 PM 39.9°F 4.4°C 18.0°F -7.8°C 41% 29.88 in / 1011.7 hPa 10.0 miles / 16.1 kilometers WSW 11.5 mph / 18.5 km/h - N/A   Clear
3:53 PM 37.9°F 3.3°C 17.1°F -8.3°C 43% 29.91 in / 1012.8 hPa 10.0 miles / 16.1 kilometers WSW 8.1 mph / 13.0 km/h 17.3 mph / 27.8 km/h N/A   Overcast
4:53 PM 37.0°F 2.8°C 17.1°F -8.3°C 44% 29.91 in / 1012.6 hPa 10.0 miles / 16.1 kilometers SSW 9.2 mph / 14.8 km/h - N/A   Mostly Cloudy
5:53 PM 35.1°F 1.7°C 16.0°F -8.9°C 46% 29.90 in / 1012.5 hPa 10.0 miles / 16.1 kilometers South 5.8 mph / 9.3 km/h - N/A   Partly Cloudy
6:53 PM 33.1°F 0.6°C 17.1°F -8.3°C 52% 29.90 in / 1012.5 hPa 10.0 miles / 16.1 kilometers South 5.8 mph / 9.3 km/h - N/A   Mostly Cloudy
7:53 PM 32.0°F 0.0°C 18.0°F -7.8°C 56% 29.90 in / 1012.4 hPa 10.0 miles / 16.1 kilometers SSW 4.6 mph / 7.4 km/h - N/A   Scattered Clouds
8:53 PM 32.0°F 0.0°C 19.0°F -7.2°C 59% 29.90 in / 1012.4 hPa 10.0 miles / 16.1 kilometers SSW 9.2 mph / 14.8 km/h - N/A   Mostly Cloudy
9:53 PM 33.1°F 0.6°C 19.0°F -7.2°C 56% 29.90 in / 1012.5 hPa 10.0 miles / 16.1 kilometers South 6.9 mph / 11.1 km/h - N/A   Overcast
10:53 PM 34.0°F 1.1°C 19.9°F -6.7°C 56% 29.90 in / 1012.4 hPa 10.0 miles / 16.1 kilometers SSW 8.1 mph / 13.0 km/h - N/A   Overcast
11:53 PM 34.0°F 1.1°C 19.9°F -6.7°C 56% 29.89 in / 1012.2 hPa 10.0 miles / 16.1 kilometers South 6.9 mph / 11.1 km/h - N/A   Overcast